Torna al catalogo

STARLINK-4356

AttivoComunicazioniSSO
NORAD 53224·PAYLOAD·🇺🇸 United States

Lanciato Jul 22, 2022 da Vandenberg Space Force Base

Loading…

Prossimi Passaggi (prossime 24 ore)

TLE

AggiornatoSource: CelesTrak SupGP

Epoca: Sep 14, 2026, 20:54 UTC

1 53224C 22084AM  26257.87131944 -.00040416  00000+0 -12547-2 0  2575
2 53224  97.2838 312.7328 0001055  93.7704  87.2749 15.33456885    18

Traccia STARLINK-4356 in tempo reale con AllMySat

Download on the App Store